Regional Weather Roundup
Issued by NWS

Home | Current Version | Previous Version | Graphics & Text | Print | Product List | Glossary On
Versions: 1 2 3 4 5 6 7 8 9 10 11 12 13 14 15 16 17 18 19 20 21 22 23 24 25 26 27 28 29 30 31 32 33 34 35 36 37 38 39 40 41 42 43 44 45 46 47 48 49 50
000
ASUS45 KCYS 261310
RWRWY

WYOMING REGIONAL WEATHER ROUNDUP
NATIONAL WEATHER SERVICE CHEYENNE WY
700 AM MDT THU APR 26 2018

NOTE:  "FAIR" INDICATES FEW OR NO CLOUDS BELOW 12,000 FEET
WITH NO SIGNIFICANT WEATHER AND/OR OBSTRUCTIONS TO VISIBILITY.

WYZ001-261400-
YELLOWSTONE NATIONAL PARK

CITY           SKY/WX    TMP DP  RH WIND       PRES   REMARKS
LK YELLOWSTONE   N/A     20  17  88 CALM      30.35R
W YELLOWSTONE  NOT AVBL

$$
WYZ002>013-054>058-071-098>099-261400-
NORTHERN WYOMING

CITY           SKY/WX    TMP DP  RH WIND       PRES   REMARKS
JACKSON        FAIR      27  23  85 N9        30.31R WCI  18
CODY           FAIR      34  30  85 S3        30.30R
GREYBULL       FAIR      35  32  88 SE5       30.29R WCI  31
WORLAND        FAIR      34  32  92 S7        30.30R WCI  28
SHERIDAN       FAIR      40  31  70 CALM      30.27R
BUFFALO        FAIR      41  30  65 NW5       30.28R
GILLETTE       CLOUDY    41  35  79 W13       30.26R
HULETT         CLOUDY    43  32  65 CALM      30.25R
NEWCASTLE      PTSUNNY   39  30  70 N6        30.24R WCI  35

$$
WYZ014>020-022>026-101>103-261400-
CENTRAL WYOMING

CITY           SKY/WX    TMP DP  RH WIND       PRES   REMARKS
BIG PINEY      FAIR      23  16  74 CALM      30.32R
PINEDALE       FAIR      25  21  86 W3        30.32R
DUBOIS         FAIR      28  27  93 W7        30.31R WCI  21
LANDER         FAIR      37  29  72 SE8       30.29R WCI  31
RIVERTON       FAIR      36  28  73 E7        30.30R WCI  30
CASPER         FAIR      35  33  92 W5        30.30R WCI  31
DOUGLAS        FAIR      37  32  82 W7        30.28R WCI  32

$$
WYZ021-027>030-104>119-261400-
SOUTHERN WYOMING

CITY           SKY/WX    TMP DP  RH WIND       PRES   REMARKS
EVANSTON       FAIR      34  22  61 SE3       30.27R
KEMMERER       FAIR      34  23  64 E8        30.31R WCI  27
FORT BRIDGER   FAIR      34  23  62 E9        30.32R WCI  27
ROCK SPRINGS   FAIR      33  28  81 SE8       30.31R WCI  26
DIXON          FAIR      36  25  63 NE13      30.30R WCI  27
RAWLINS        FAIR      29  25  85 NE5       30.30R WCI  24
SARATOGA       PTSUNNY   36  27  69 CALM      30.31R
LARAMIE        LGT SNOW  32  32 100 N13       30.27R FOG     WCI  22
CHEYENNE       MOCLDY    39  29  67 N20G29    30.24R WCI  29
TORRINGTON     CLOUDY    46  32  58 NW17      30.21R
PINE BLUFFS    FAIR      39  30  70 NW20G25   30.22R WCI  30

$$



USA.gov is the U.S. government's official web portal to all federal, state and local government web resources and services.